This demonstration page uses our WeatherBlox Daily Observations layout. Learn more.

Left ArrowRight Arrow

44.31136, -96.79839

Hourly Observations for June 18, 2019

Temp ( °F °C ) Dew Point ( °F °C ) Humidity (%) Winds ( mph kmh ) Pressure ( in mb ) Visibility ( mi km ) Precip ( " mm )
1:56 am 01:56 Clear 54 12.2 53 11.7 97 97 Calm 30.07 1018 10 16 0.00 0.00
2:56 am 02:56 Clear 53 11.7 52 11.1 96 96 NW 3 6 30.08 1019 10 16 0.00 0.00
3:56 am 03:56 Clear 52 11.1 51 10.6 97 97 Calm 30.06 1018 10 16 0.00 0.00
4:56 am 04:56 Clear 51 10.6 50 10 96 96 Calm 30.06 1018 9 14 0.00 0.00
5:10 am 05:10 Clear with Mist and Fog 50 10 50 10 100 100 N 3 6 30.03 1017 2 3 0.00 0.00
5:19 am 05:19 Clear with Mist and Fog 50 10 48 9 94 94 NNW 3 6 30.03 1017 4 6 0.00 0.00
5:37 am 05:37 Clear with Mist and Fog 48 9 48 9 100 100 Calm 30.04 1017 2 3 0.00 0.00
5:56 am 05:56 Sunny with Mist and Fog 50 10 50 10 100 100 Calm 30.06 1018 2 2 0.00 0.00
6:02 am 06:02 Sunny with Mist and Fog 50 10 50 10 100 100 Calm 30.03 1017 4 6 0.00 0.00
6:56 am 06:56 Sunny 52 11.1 51 10.6 97 97 Calm 30.07 1018 10 16 0.00 0.00
7:56 am 07:56 Sunny 57 13.9 53 11.7 87 87 Calm 30.08 1019 10 16 0.00 0.00
8:56 am 08:56 Sunny 61 16.1 55 12.8 81 81 NNW 5 7 30.07 1018 10 16 0.00 0.00
9:56 am 09:56 Sunny 65 18.3 52 11.1 63 63 NNW 9 15 30.06 1018 10 16 0.00 0.00
10:56 am 10:56 Mostly Sunny 66 18.9 52 11.1 61 61 N 7 11 30.06 1018 10 16 0.00 0.00
11:46 am 11:46 Mostly Sunny 66 19 52 11 60 60 N 10 17 29.97 1015 10 16 0.00 0.00
11:56 am 11:56 Sunny 67 19.4 51 10.6 57 57 N 10 17 30.04 1017 10 16 0.00 0.00
12:39 pm 12:39 Partly Cloudy 68 20 52 11 56 56 NNW 9 15 29.96 1015 7 11 0.00 0.00
12:56 pm 12:56 Partly Cloudy 68 20 53 11.7 59 59 NE 8 13 30.04 1017 10 16 0.00 0.00
1:56 pm 13:56 Mostly Cloudy 69 20.6 52 11.1 55 55 VRB 3 6 30.02 1017 10 16 0.00 0.00
2:25 pm 14:25 Mostly Cloudy 70 21 52 11 53 53 Calm 29.92 1013 10 16 0.00 0.00
2:56 pm 14:56 Mostly Cloudy 69 20.6 52 11.1 55 55 N 6 9 30.01 1016 10 16 0.00 0.00
3:56 pm 15:56 Partly Cloudy 70 21.1 53 11.7 55 55 VRB 3 6 29.99 1016 10 16 0.00 0.00
4:20 pm 16:20 Mostly Cloudy 72 22 52 11 50 50 Calm 29.89 1012 10 16 0.00 0.00
4:56 pm 16:56 Mostly Sunny 71 21.7 53 11.7 53 53 VRB 3 6 29.97 1015 10 16 0.00 0.00
5:03 pm 17:03 Partly Cloudy 72 22 54 12 53 53 Calm 29.88 1012 10 16 0.00 0.00
5:56 pm 17:56 Mostly Cloudy 71 21.7 54 12.2 55 55 SSW 7 11 29.96 1015 10 16 0.00 0.00
6:56 pm 18:56 Partly Cloudy 70 21.1 54 12.2 57 57 S 6 9 29.96 1014 10 16 0.00 0.00
7:56 pm 19:56 Cloudy 70 21.1 55 12.8 59 59 S 3 6 29.95 1014 10 16 0.00 0.00
8:56 pm 20:56 Mostly Cloudy 68 20 52 11.1 57 57 SE 3 6 29.94 1014 10 16 0.00 0.00
9:56 pm 21:56 Partly Cloudy 65 18.3 54 12.2 68 68 SE 3 6 29.94 1014 10 16 0.00 0.00
10:56 pm 22:56 Clear 64 17.8 54 12.2 70 70 SE 3 6 29.95 1014 10 16 0.00 0.00
11:56 pm 23:56 Clear 61 16.1 53 11.7 75 75 Calm 29.94 1014 10 16 0.00 0.00

Powered by AerisWeather